Location: Fingrowa Huta
(54.1577°N, 17.9291°E)
Time: 22:53:29
(UTC+02:00)

ISS - Visible Passes

Search period start: 25 September 2018 00:00
Search period end: 05 October 2018 00:00
Orbit: 403 x 408 km, 51.6° (Epoch: 26 September)

Date Brightness Start Highest point End Pass type
(mag) Time Alt. Az. Time Alt. Az. Time Alt. Az.
25 Sep -1.9 19:29:30 10° S 19:31:40 16° SSE 19:33:24 12° ESE visible
25 Sep -2.1 21:04:28 10° WSW 21:06:06 25° SW 21:06:06 25° SW visible
26 Sep -3.0 20:12:48 10° SW 20:15:51 34° SSE 20:16:23 32° SE visible
26 Sep -0.7 21:48:49 10° WSW 21:49:04 12° WSW 21:49:04 12° WSW visible
27 Sep -2.5 19:21:16 10° SSW 19:24:05 26° SSE 19:26:35 12° E visible
27 Sep -2.7 20:57:00 10° WSW 20:59:15 37° SW 20:59:15 37° SW visible
28 Sep -3.4 20:05:11 10° WSW 20:08:22 46° SSE 20:09:23 33° ESE visible
28 Sep -0.9 21:41:26 10° W 21:42:03 14° W 21:42:03 14° W visible
29 Sep -3.0 19:13:27 10° SW 19:16:32 37° SSE 19:19:26 11° E visible
29 Sep -3.0 20:49:32 10° W 20:52:07 44° SW 20:52:07 44° SW visible
30 Sep -3.5 19:57:39 10° WSW 20:00:54 54° S 20:02:08 32° ESE visible
30 Sep -1.0 21:34:01 10° W 21:34:48 16° W 21:34:48 16° W visible
01 Oct -3.3 19:05:48 10° WSW 19:09:00 49° S 19:12:07 11° E visible
01 Oct -3.0 20:42:04 10° W 20:44:47 44° SW 20:44:47 44° SW visible
02 Oct -3.5 19:50:09 10° W 19:53:23 54° S 19:54:46 29° ESE visible
02 Oct -1.0 21:26:38 10° W 21:27:26 15° WSW 21:27:26 15° WSW visible
03 Oct -3.4 18:58:13 10° WSW 19:01:28 55° S 19:04:43 10° E visible
03 Oct -2.8 20:34:36 10° W 20:37:24 37° SSW 20:37:24 37° SSW visible
04 Oct -3.2 19:42:37 10° W 19:45:49 46° SSW 19:47:23 25° SE visible
04 Oct -0.9 21:19:24 10° WSW 21:20:03 13° WSW 21:20:03 13° WSW visible
